Regional Weather Roundup
Issued by NWS Sioux Falls, SD

Home | Current Version | Previous Version | Text Only | Print | Product List | Glossary Off
Versions: 1 2 3 4 5 6 7 8 9 10 11 12 13 14 15 16 17 18 19 20 21 22 23 24 25 26 27 28 29 30 31 32 33 34 35 36 37 38 39 40 41 42 43 44 45 46 47 48 49 50

000
ASUS43 KFSD 211610
RWRFSD

WEATHER ROUNDUP FOR SE SOUTH DAKOTA/SW MINNESOTA/NW IOWA
NATIONAL WEATHER SERVICE SIOUX FALLS SD
1100 AM CDT MON AUG 21 2017

NOTE: "FAIR" INDICATES FEW OR NO CLOUDS BELOW 12,000 FEET WITH NO
SIGNIFICANT WEATHER AND OR OBSTRUCTIONS TO VISIBILITY.


SDZ038>040-050-052>070-211700-
SOUTHEAST SOUTH DAKOTA

CITY           SKY/WX    TMP DP  RH WIND       PRES   REMARKS
BROOKINGS      HVY RAIN  64  63  94 CALM      30.06R
CHAMBERLAIN    CLOUDY    66  65  97 N17G25    29.97F
HURON          CLOUDY    65  65 100 SE10      29.97F THUNDER
MADISON        CLOUDY    68  68 100 NE7       30.05R
MITCHELL       CLOUDY    74  66  76 NE6       29.99R
SIOUX FALLS    CLOUDY    74  66  76 NE7       29.98R THUNDER
WINNER         TSTM      63  62  97 N21G33    29.98R VSB 1/2
YANKTON        MOSUNNY   78  66  66 SE8       29.94R
$$

MNZ071-072-080-081-089-090-097-098-211700-
SOUTHWEST MINNESOTA

CITY           SKY/WX    TMP DP  RH WIND       PRES   REMARKS
FAIRMONT       SUNNY     75  66  73 SW12      30.00R
JACKSON        MOSUNNY   72  64  78 W6        30.01F
LUVERNE        CLOUDY    70  63  78 CALM      30.01R THUNDER
MARSHALL       CLOUDY    63  62  97 NW12      30.03R FOG
MONTEVIDEO     CLOUDY    63  61  94 N3        30.03S
PIPESTONE      RAIN      70  66  88 W3        30.04R
REDWOOD FALLS  CLOUDY    73  65  75 S9        30.00R
TRACY          CLOUDY    67  67 100 SW5       30.03R FOG
WINDOM         SUNNY     72  64  78 SW10      30.03R
WORTHINGTON    CLOUDY    71  67  87 VRB5      30.02S
$$

IAZ001>003-012>014-020>022-031-032-NEZ013-014-SDZ071-211700-
NORTHWEST IOWA

CITY           SKY/WX    TMP DP  RH WIND       PRES   REMARKS
CHEROKEE         N/A    N/A N/A N/A MISG      29.97
DENISON        MOSUNNY   73  68  83 S13G24    30.00S
ESTHERVILLE    SUNNY     74  67  78 SW10      29.98F
ORANGE CITY    CLOUDY    77  68  73 S10G20    29.95F
SHELDON        PTSUNNY   72  63  73 S12G20    29.95F
SIOUX CITY     PTSUNNY   77  69  76 S18G25    29.95F
SPENCER        PTSUNNY   74  63  68 S15       29.98F
STORM LAKE     MOSUNNY   70  66  88 S13G20    29.98F
$$

ABBREVIATIONS USED IN REMARKS
   TC - TEMPERATURE IN CELSIUS
  WCI - WIND CHILL INDEX
   HX - HEAT INDEX
  VSB - VISIBILITY





USA.gov is the U.S. government's official web portal to all federal, state and local government web resources and services.